Location: Croissy-Beaubourg
(48.8283°N, 2.6696°E)
Time: 01:56:18
(UTC+00:00)

USA 215 - Pass Details

Date: 25 May 2022
Orbit: 1099 x 1108 km, 123.0° (Epoch: 10 June)

Event Time Altitude Azimuth Distance (km) Brightness Sun altitude
Rises 02:43:12 0° 81° (E) 3,917 7.0 -9.9°
Reaches altitude 10° 02:45:47 10° 76° (ENE) 2,961 6.5 -9.6°
Maximum altitude 02:51:54 45° 6° (N) 1,471 4.4 -8.9°
Drops below altitude 10° 02:58:03 10° 297° (WNW) 2,969 5.4 -8.2°
Sets 03:00:38 0° 291° (WNW) 3,928 5.9 -7.9°
